Location: Newark
(33.6439°N, 114.9881°W)
Time: 04:51:21
(UTC+00:00)

Envisat - Pass Details

Date: 29 March 2019
Orbit: 764 x 766 km, 98.2° (Epoch: 21 April)

Event Time Altitude Azimuth Distance (km) Brightness Sun altitude
Rises 02:32:18 0° 173° (S) 3,217 6.1 -8.0°
Reaches altitude 10° 02:34:36 10° 176° (S) 2,294 5.3 -8.5°
Maximum altitude 02:39:37 66° 259° (WSW) 834 3.5 -9.5°
Drops below altitude 10° 02:44:41 10° 341° (NNW) 2,307 5.9 -10.5°
Sets 02:47:01 0° 345° (NNW) 3,237 6.6 -11.0°
